Framingham, MA (01701)

1:01 AM EDT on August 05, 2015 (GMT -0400)
Nobscot-Amy Road | | Change Station
CLOSE
Current Station
Personal Weather Station
Location: Framingham, MA
Elevation: 200 ft
Nearby Weather Stations

Elev 200 ft 42.32 °N, 71.44 °W | Updated 2 minutes ago

Clear
Clear
64.2 °F
Feels Like 64.2 °F
N
0.0
Wind Variable Wind from NNW

Today
High -- | Low -- °F
--% Chance of Precip.
Yesterday
High -- | Low -- °F
Precip. -- in
5:42 AM 8:00 PM
Waning Gibbous, 71% visible
Pressure 29.91 in
Visibility 8.0 miles
Clouds Clear
Dew Point Not available.
Humidity Not available.
Rainfall 0.00 in
Snow Depth Not available.
UV 0 out of 12
Pollen 5.70 out of 12
Air Quality Not available.
Flu Activity Not available.
METAR KBED 050456Z 24005KT 8SM CLR 18/18 A2988 RMK AO2 SLP127 T01830178 403170172

More Conditions Fewer Conditions

Pressure 29.91 in
Visibility 8.0 miles
Clouds Clear
Dew Point Not available.
Humidity Not available.
Rainfall 0.00 in
Snow Depth Not available.
UV 0 out of 12
Pollen 5.70 out of 12
Air Quality Not available.
Flu Activity Not available.
METAR KBED 050456Z 24005KT 8SM CLR 18/18 A2988 RMK AO2 SLP127 T01830178 403170172

More Conditions Fewer Conditions

10-Day Weather Forecast

×

Almanac

Astronomy

Aug. 05, 2015 Rise Set
Actual Time
Civil Twilight
Nautical Twilight
Astronomical Twilight
Moon
Length of Visible Light
Length of Day
Tomorrow will be .
, % of the Moon is Illuminated

Today's Extremes

State Highs State Lows

Community

WunderPhotos

Upload Photos

1,844,094 photos uploaded!

WunderBlogs® & News

Nearby

Air Quality

  Air Quality AQ Index Pollutant
Not available.

Snow Depth

Station Depth Elevation

Earthquake Activity

City Distance Mag. Time & Date
Minimum magnitude displayed is 2.5.

Coastal Water Temperatures

Place Temperature

Stations

Nearby Weather Stations

Station Location Temp. Windchill Dew Point Humidity Wind Precip. Elev Updated Type